Wind_Speed
46 48 50 49 48 45 40 38 36 35 34 34 30 27 26 24 25 24 21 21 19 19 24 19 19 21 25 29 38 44 60 61 54 57 53 49 46 41 37 36 32 31 28 25 24 24 23 20 23 20 21 19 19 23
48 50 50 48 47 43 38 35 35 32 31 30 27 24 23 23 25 24 21 21 18 18 24 18 15 14 17 23 35 43 59 57 61 58 56 54 53 48 43 39 32 35 31 30 27 24 28 26 21 19 18 19 25 27
49 48 45 43 38 33 33 32 31 29 27 26 24 22 22 23 25 25 22 19 18 17 21 17 14 14 18 20 31 33 57 61 57 54 54 65 54 48 38 34 34 35 33 27 23 24 26 22 23 20 16 24 24 21
45 41 37 32 30 30 29 29 28 27 26 24 23 23 22 23 26 25 23 20 17 16 18 16 15 16 16 15 34 35 46 58 56 50 55 44 45 39 34 34 36 31 26 21 23 24 19 21 21 18 16 19 16 16
42 36 32 28 28 30 31 30 28 27 25 23 22 22 22 24 23 22 21 19 16 15 16 16 14 14 16 15 31 37 42 45 55 54 54 52 38 36 40 37 38 30 32 29 26 22 18 17 17 16 15 12 11 6
31 29 29 31 33 32 30 29 27 26 24 22 22 20 20 20 20 20 18 17 15 14 15 17 14 15 12 12 15 44 39 44 43 48 56 58 48 44 38 39 42 37 34 30 28 23 22 18 17 13 12 11 10 9
28 30 32 32 31 29 28 26 25 23 22 20 19 18 19 17 17 16 14 14 14 13 15 15 13 13 14 12 12 20 42 38 44 51 45 52 50 47 50 47 46 38 32 28 17 20 23 17 10 9 9 5 4 5
32 31 32 29 25 24 23 22 21 20 19 18 17 18 17 15 16 13 12 13 14 13 14 13 9 12 10 10 13 13 20 45 50 49 47 52 46 36 33 42 36 31 30 25 19 16 13 12 10 7 5 2 3 2
30 29 26 24 22 21 20 18 17 17 16 16 16 17 16 14 14 13 13 14 13 13 13 12 10 14 10 9 12 13 9 21 38 51 50 42 43 36 28 36 41 31 22 16 18 20 20 13 9 5 5 4 5 3
29 25 22 20 21 20 17 15 15 14 14 14 15 14 13 13 14 14 14 14 13 12 14 14 11 12 13 11 11 8 6 7 14 43 45 49 37 32 38 39 34 34 26 19 18 16 19 15 13 9 6 5 4 2
24 22 21 21 18 16 15 15 13 13 13 14 12 10 10 10 11 12 12 12 11 14 14 11 13 13 12 12 14 13 14 13 11 25 51 50 36 27 39 35 31 29 27 23 18 16 17 18 14 11 8 4 2 3
22 20 18 17 16 15 12 11 12 13 14 14 11 10 9 9 7 7 7 9 12 13 12 11 12 11 13 12 13 16 14 14 9 14 15 31 40 35 33 33 40 36 23 23 28 27 23 22 18 15 11 7 7 7
18 16 16 17 17 16 15 14 14 16 14 14 13 11 9 7 7 8 12 11 11 10 7 2 5 9 12 16 17 13 12 19 13 20 9 7 28 44 50 36 36 34 28 24 31 26 24 26 23 18 15 12 13 12
17 17 18 17 16 14 14 13 10 9 10 11 10 10 10 9 10 11 13 12 12 11 11 11 8 5 9 11 15 11 6 14 16 7 7 12 18 34 37 36 35 33 30 29 26 24 23 27 28 23 20 20 18 16
17 17 16 16 15 14 13 11 11 8 7 8 8 10 13 15 18 18 10 7 11 9 14 14 12 11 7 7 16 10 4 3 11 14 6 8 16 27 32 37 39 40 33 33 25 23 26 29 29 28 26 23 22 22
15 15 14 14 14 14 14 14 13 12 9 7 8 11 17 22 22 14 14 3 14 7 10 14 10 8 14 12 19 15 7 4 6 7 8 3 12 15 17 21 39 34 27 31 30 30 26 24 25 27 28 28 26 25
15 14 13 12 11 12 12 13 13 12 10 9 14 17 21 21 20 10 11 10 11 9 14 12 11 11 9 9 11 11 7 6 9 9 12 10 7 14 12 13 23 31 29 30 32 29 28 27 27 27 26 23 27 28
16 16 14 13 11 11 12 12 11 11 10 12 20 21 19 16 14 9 7 8 8 12 11 14 14 10 13 12 10 11 12 10 9 14 10 9 6 12 11 10 10 36 26 24 29 31 30 30 30 29 31 32 29 29
16 16 15 13 11 11 11 11 11 10 8 15 20 22 19 16 12 12 3 6 7 5 8 13 16 15 14 12 12 11 10 13 15 12 15 14 14 13 13 14 11 10 12 15 18 22 25 26 27 28 27 29 31 32
16 15 15 14 11 11 11 11 8 7 11 17 19 20 19 16 15 16 10 7 9 8 6 10 13 11 8 9 11 3 5 5 9 13 15 16 17 18 17 18 19 19 17 18 21 22 20 23 25 26 28 28 27 30
17 16 15 14 12 13 14 11 7 11 15 16 18 20 18 16 15 15 12 9 6 5 5 10 11 7 5 4 6 6 6 6 5 5 8 11 14 13 14 15 17 18 19 20 19 24 27 25 27 28 27 27 26 27
19 18 18 16 14 15 16 13 14 12 11 11 12 15 18 18 17 15 12 12 12 7 8 8 7 8 6 8 5 4 5 5 6 8 7 10 12 13 12 15 16 17 21 22 23 23 22 23 27 28 29 32 32 30
20 20 19 17 17 16 15 17 15 10 9 11 11 9 8 11 14 15 16 15 10 11 11 10 8 5 7 6 5 4 4 5 7 7 7 8 11 11 13 13 16 17 15 13 17 19 18 18 20 23 29 30 33 34
20 20 19 19 18 17 19 17 13 11 13 12 12 10 10 8 10 12 11 12 12 11 10 8 8 7 6 6 6 7 6 6 7 6 6 6 7 11 19 15 9 11 9 11 12 10 11 14 17 17 14 21 30 29
21 20 20 19 19 19 18 17 13 13 13 13 11 8 10 9 10 10 8 10 10 9 8 8 7 7 6 6 6 5 8 14 10 10 8 4 6 7 8 9 11 11 7 7 6 6 5 10 10 7 12 10 6 9
22 22 22 20 18 19 18 18 19 16 14 11 7 7 11 14 11 8 6 6 9 10 9 8 6 4 5 6 8 7 5 3 3 7 6 8 10 14 10 4 4 3 4 6 4 5 8 14 17 16 13 13 13 16
24 21 19 17 19 24 23 20 19 15 12 11 11 12 12 6 11 10 7 7 8 8 6 5 4 5 5 6 7 5 7 7 8 6 8 7 10 6 7 7 11 11 7 7 8 12 13 13 16 19 22 23 19 20
19 17 16 24 26 23 22 18 15 10 11 10 12 13 5 14 11 13 14 11 9 7 5 4 1 3 3 4 3 8 5 1 1 2 2 1 4 3 4 6 6 8 8 8 9 10 11 13 13 14 16 18 22 23
19 24 27 26 24 22 18 17 15 15 16 14 13 10 10 12 11 9 7 6 6 5 3 2 1 1 3 2 1 1 4 6 5 4 3 4 5 6 8 10 12 13 14 14 14 14 16 19 20 21 23 25 27 28
29 30 25 18 16 20 18 16 14 13 9 8 9 9 9 8 6 5 4 3 3 4 3 1 2 1 1 4 3 7 7 7 9 11 13 14 13 13 12 12 12 14 15 15 15 16 16 18 19 20 23 25 26 27
17 13 16 18 20 18 14 13 10 9 10 9 7 6 5 5 4 4 4 4 3 2 0 2 4 3 3 4 6 6 6 7 8 10 12 14 15 17 17 18 18 18 19 17 18 19 21 23 22 22 23 24 26 27
23 19 21 23 19 14 12 10 9 9 8 7 7 8 6 4 4 5 5 4 3 3 2 2 3 3 2 3 6 7 7 8 9 11 13 15 17 19 20 21 23 23 24 24 24 24 23 23 22 24 25 26 28 29
19 20 19 18 15 12 10 10 9 8 8 9 8 8 9 8 9 8 6 5 4 2 2 3 4 5 6 7 8 9 11 12 13 16 18 19 19 20 20 19 20 22 24 26 27 28 28 28 29 29 29 29 30 30
Wind_Direction
294 295 299 303 303 300 295 291 288 291 288 286 289 291 291 288 284 281 281 277 275 271 270 267 264 244 241 227 216 215 207 217 209 213 217 218 221 228 237 243 245 249 256 265 271 273 277 271 262 269 274 269 278 281
295 299 301 302 302 295 292 290 289 289 288 287 287 288 287 287 284 281 277 275 272 268 262 267 269 266 255 234 219 214 207 217 217 215 222 223 221 223 231 236 242 244 254 260 259 268 272 263 274 274 302 276 295 291
299 301 301 300 295 293 292 292 290 289 287 285 284 283 284 282 279 276 272 271 268 264 259 260 266 263 254 245 215 208 206 216 221 216 223 215 222 218 230 240 237 248 254 260 266 266 264 270 274 278 292 310 292 303
299 299 299 297 296 295 294 291 290 287 287 284 283 279 279 281 279 273 268 269 266 260 251 244 264 266 266 266 213 216 210 216 223 216 216 214 202 212 235 241 246 247 257 248 262 259 266 271 276 274 296 309 311 322
298 296 295 295 296 299 297 291 288 286 285 284 281 280 280 279 276 270 268 264 258 253 242 247 258 256 255 258 214 215 219 219 221 222 217 222 222 238 237 242 230 240 242 248 253 267 262 277 265 275 286 308 321 7
296 294 292 295 295 294 292 287 283 282 281 279 278 278 278 277 273 268 265 257 250 243 236 249 248 248 241 248 229 213 222 222 228 228 216 217 221 228 229 237 235 252 255 246 250 253 264 272 251 277 311 307 285 301
291 292 294 294 293 291 288 285 283 281 278 275 274 274 273 272 270 266 259 249 244 235 235 242 247 236 224 242 244 221 209 220 214 229 224 218 221 226 231 238 250 256 235 250 243 245 249 247 262 290 316 338 321 290
294 296 295 295 290 290 289 286 284 279 276 274 272 271 269 267 265 263 255 246 238 228 225 235 237 216 213 218 227 241 220 219 216 220 223 227 227 237 242 239 244 219 233 238 214 227 219 241 249 266 297 321 313 336
295 294 293 289 288 288 287 287 285 281 275 274 273 269 267 266 262 255 247 243 239 228 220 223 217 210 219 220 221 219 235 220 219 215 219 230 236 227 221 225 218 213 209 234 220 241 239 217 235 234 251 261 257 252
293 289 285 283 285 286 285 284 280 276 272 274 270 268 271 263 254 245 239 241 232 222 212 217 206 210 203 224 218 204 220 242 232 203 213 224 219 209 214 213 210 207 208 232 227 221 203 197 212 198 225 241 272 299
285 285 283 283 282 283 280 275 272 271 271 271 268 268 265 258 252 245 241 234 218 206 207 208 210 219 218 218 216 207 227 236 218 211 213 222 209 202 211 204 214 219 232 221 221 217 215 218 215 211 212 220 310 316
283 279 276 277 276 275 272 272 273 276 274 266 256 263 267 260 246 231 221 202 197 193 201 212 211 211 216 216 212 209 237 227 229 214 224 230 222 209 218 223 223 226 227 230 226 227 233 232 221 218 226 222 237 256
277 275 275 273 268 265 265 272 275 276 263 253 246 248 252 233 207 189 168 160 160 176 183 200 237 226 222 229 223 240 274 242 258 222 226 210 198 214 223 220 218 213 221 225 231 225 230 231 225 225 228 229 236 240
277 278 273 267 262 257 258 264 264 259 248 241 237 241 235 202 193 179 162 161 168 186 189 191 203 230 237 237 223 218 282 238 225 220 231 249 230 216 215 221 215 218 228 221 229 225 227 234 232 227 227 231 236 240
276 271 266 262 256 249 244 241 241 246 242 240 246 235 205 182 170 162 194 209 201 208 204 184 179 207 169 235 203 215 227 234 241 236 236 230 231 221 218 213 214 217 214 213 222 220 229 231 229 230 231 235 238 239
265 263 261 257 251 243 239 237 238 235 242 251 231 197 183 183 182 179 203 193 203 148 146 182 202 208 218 218 204 233 263 275 203 230 182 207 195 190 202 220 217 212 219 219 219 217 223 234 233 233 233 239 242 244
259 257 255 251 247 241 234 230 228 222 230 236 201 187 186 193 189 195 201 220 207 203 195 198 206 215 210 207 207 213 204 229 239 243 258 273 214 198 228 274 226 221 221 225 222 223 229 240 240 244 244 243 245 246
250 246 243 244 242 236 225 219 216 212 227 222 192 183 185 190 195 192 210 214 221 223 219 211 217 230 216 217 212 215 212 227 243 232 224 209 236 229 244 231 262 216 222 235 230 228 231 238 245 247 251 253 248 241
241 234 229 227 230 223 212 205 204 210 219 197 193 189 191 191 196 195 163 168 175 211 230 221 222 215 212 229 222 223 228 225 227 231 243 229 214 217 235 250 251 232 220 236 234 234 238 242 243 246 244 250 250 238
225 221 217 213 213 207 195 194 199 224 203 190 192 191 195 202 200 200 205 192 179 180 206 197 195 196 206 224 220 254 215 225 227 226 228 240 245 249 246 244 248 251 253 246 240 235 234 239 235 240 237 248 248 243
211 207 204 200 194 188 185 177 167 159 166 181 190 196 203 208 205 201 210 221 235 222 201 197 201 217 230 204 211 184 166 197 196 212 231 237 239 251 256 254 245 236 231 236 243 244 237 237 240 246 245 245 241 238
198 195 191 190 183 183 184 183 169 157 172 178 189 198 205 208 212 219 216 217 226 217 196 200 209 198 176 162 166 212 223 229 242 248 241 246 255 251 241 246 247 260 247 236 246 247 241 238 238 242 242 243 247 247
185 183 182 178 175 174 176 170 169 169 174 169 169 173 189 199 198 195 197 206 196 183 182 183 201 202 179 199 231 243 251 254 263 258 258 254 248 246 242 242 243 254 247 245 241 239 233 239 246 248 249 253 253 245
173 174 169 169 168 162 166 168 165 159 158 153 150 144 133 137 159 159 161 174 181 189 192 196 202 199 213 250 281 283 288 299 311 290 288 289 302 291 262 273 268 255 262 217 221 240 260 250 254 243 256 273 258 237
162 160 161 161 163 168 169 170 164 156 149 146 142 117 105 153 156 151 155 172 179 184 193 196 204 217 205 204 229 256 256 294 296 239 289 305 339 301 261 258 270 266 261 276 298 227 271 267 268 265 271 266 321 196
151 149 148 150 152 156 156 145 130 129 136 122 84 108 144 147 133 141 145 177 179 179 203 205 208 183 199 219 219 218 220 265 277 234 282 291 320 290 289 280 334 190 307 295 261 220 305 265 268 260 237 251 269 267
142 147 146 146 147 139 130 131 136 135 125 95 128 138 143 140 127 101 119 123 129 152 156 157 186 193 208 222 221 248 257 274 306 308 314 292 313 328 307 305 312 323 310 274 271 278 290 283 294 272 256 258 269 283
142 144 140 138 133 136 137 125 119 114 109 93 141 150 105 150 112 100 118 117 110 107 134 165 183 188 200 258 297 289 267 252 297 309 332 174 221 252 266 277 276 277 297 307 294 292 289 294 295 285 280 279 279 280
133 130 132 132 136 131 119 115 112 109 118 127 130 141 113 115 123 121 121 122 125 140 150 181 345 116 193 176 26 223 236 271 310 286 261 285 329 322 302 298 297 297 296 294 292 288 285 285 284 281 281 281 283 285
130 126 118 105 116 137 123 127 113 112 142 125 129 136 140 148 152 149 159 157 181 197 205 258 299 358 173 316 335 360 336 319 318 323 323 324 318 307 306 306 307 306 307 306 301 296 288 281 277 277 275 275 276 278
101 95 95 109 121 132 109 103 102 116 121 125 131 126 126 139 167 190 220 218 188 148 286 304 318 356 307 298 310 303 310 318 316 316 313 311 310 313 313 310 307 304 302 299 297 297 298 296 292 287 282 277 274 274
120 115 117 117 115 112 109 116 124 126 130 132 122 128 116 109 147 185 209 237 262 280 56 46 26 40 10 329 322 325 330 328 323 318 315 313 312 313 312 312 311 308 306 305 304 303 299 295 291 287 286 285 283 281
120 120 118 113 112 124 132 131 127 126 112 97 117 126 118 109 108 108 109 108 99 71 34 18 10 7 347 343 334 329 325 324 326 324 321 319 318 318 317 314 310 308 307 308 308 307 306 302 299 296 293 291 288 285
Height
5745 5741 5736 5731 5726 5722 5718 5715 5713 5711 5709 5707 5705 5703 5701 5701 5700 5698 5697 5698 5699 5699 5696 5698 5698 5701 5702 5706 5713 5716 5727 5731 5740 5746 5751 5758 5763 5767 5772 5776 5779 5782 5784 5785 5786 5785 5785 5786 5785 5789 5789 5790 5790 5787
5731 5727 5723 5718 5714 5710 5707 5705 5702 5700 5699 5697 5695 5694 5693 5693 5693 5691 5690 5691 5692 5692 5691 5691 5692 5694 5696 5698 5702 5707 5716 5720 5727 5737 5744 5752 5753 5759 5765 5770 5774 5775 5778 5780 5782 5782 5777 5775 5780 5783 5782 5783 5782 5778
5718 5714 5709 5705 5701 5699 5697 5695 5693 5691 5690 5688 5687 5686 5686 5685 5685 5685 5683 5684 5685 5686 5685 5687 5688 5688 5687 5689 5691 5699 5708 5714 5719 5730 5733 5737 5746 5754 5759 5764 5767 5768 5770 5773 5775 5774 5771 5773 5774 5777 5779 5777 5773 5773
5704 5701 5697 5694 5692 5690 5688 5686 5684 5682 5681 5680 5679 5678 5678 5677 5677 5677 5676 5677 5679 5680 5681 5682 5683 5683 5683 5684 5687 5696 5701 5708 5715 5724 5729 5732 5738 5748 5754 5757 5763 5766 5767 5771 5770 5766 5767 5769 5771 5772 5773 5771 5769 5769
5692 5689 5687 5685 5683 5682 5680 5678 5675 5674 5672 5671 5671 5671 5670 5669 5669 5669 5669 5671 5673 5676 5677 5677 5678 5679 5679 5680 5682 5689 5697 5702 5708 5715 5720 5725 5736 5743 5745 5751 5755 5758 5761 5763 5764 5762 5763 5765 5766 5767 5768 5766 5764 5763
5681 5679 5677 5676 5674 5671 5669 5668 5666 5665 5664 5663 5663 5663 5662 5662 5662 5662 5664 5665 5668 5670 5672 5672 5674 5675 5676 5677 5679 5685 5691 5698 5702 5706 5711 5719 5728 5736 5740 5743 5749 5751 5755 5757 5759 5759 5758 5761 5760 5762 5761 5761 5760 5761
5672 5670 5668 5666 5663 5661 5660 5659 5657 5657 5657 5656 5656 5656 5656 5655 5655 5657 5659 5660 5663 5665 5667 5668 5669 5671 5674 5675 5677 5679 5684 5691 5698 5698 5706 5716 5721 5727 5733 5739 5741 5747 5751 5751 5754 5753 5753 5756 5757 5759 5759 5760 5761 5760
5663 5660 5658 5656 5655 5653 5652 5651 5650 5650 5650 5649 5650 5650 5649 5649 5651 5652 5654 5656 5659 5661 5663 5665 5667 5669 5672 5674 5675 5676 5679 5683 5690 5692 5697 5706 5714 5720 5727 5732 5735 5742 5746 5747 5749 5749 5751 5753 5755 5756 5758 5759 5758 5757
5653 5651 5650 5648 5647 5646 5645 5644 5644 5644 5644 5644 5644 5644 5644 5645 5646 5648 5650 5652 5655 5659 5660 5662 5664 5666 5669 5671 5673 5674 5675 5677 5680 5687 5692 5699 5705 5714 5721 5723 5728 5735 5740 5742 5745 5744 5748 5750 5753 5755 5756 5757 5757 5757
5644 5643 5642 5641 5641 5640 5639 5639 5639 5639 5639 5639 5639 5640 5640 5640 5642 5644 5646 5649 5651 5654 5656 5659 5661 5663 5666 5667 5669 5672 5673 5674 5675 5683 5689 5691 5703 5712 5712 5716 5724 5731 5736 5738 5741 5742 5743 5746 5750 5753 5755 5755 5755 5753
5636 5635 5635 5634 5634 5634 5633 5633 5634 5634 5635 5635 5635 5636 5636 5637 5638 5640 5642 5645 5647 5650 5653 5657 5658 5660 5663 5665 5666 5668 5670 5673 5674 5677 5680 5682 5700 5707 5710 5716 5719 5725 5731 5735 5738 5740 5741 5743 5746 5749 5752 5752 5751 5753
5628 5628 5628 5628 5628 5629 5629 5629 5629 5631 5631 5632 5632 5633 5633 5634 5636 5638 5639 5642 5644 5648 5651 5654 5656 5658 5660 5661 5664 5668 5669 5671 5673 5676 5677 5682 5696 5699 5700 5706 5711 5718 5724 5729 5733 5735 5738 5740 5742 5745 5747 5749 5751 5752
5622 5622 5622 5622 5623 5623 5624 5624 5625 5625 5625 5627 5628 5629 5631 5633 5635 5636 5638 5641 5644 5647 5650 5653 5655 5656 5658 5659 5663 5664 5666 5667 5670 5674 5676 5679 5682 5687 5692 5699 5704 5711 5716 5720 5725 5729 5732 5736 5739 5742 5744 5747 5749 5750
5616 5616 5616 5616 5617 5618 5618 5619 5620 5621 5622 5623 5625 5627 5629 5631 5632 5635 5638 5640 5643 5645 5647 5650 5653 5655 5656 5657 5659 5662 5664 5665 5668 5671 5674 5676 5678 5681 5686 5695 5701 5706 5711 5717 5720 5723 5726 5730 5734 5738 5740 5743 5744 5745
5609 5610 5610 5611 5612 5613 5614 5615 5617 5618 5619 5620 5622 5623 5625 5628 5630 5632 5636 5641 5642 5643 5644 5648 5651 5653 5654 5655 5658 5662 5664 5665 5666 5670 5673 5673 5674 5678 5684 5690 5695 5698 5703 5708 5712 5715 5720 5723 5727 5730 5734 5737 5739 5740
5604 5605 5605 5606 5607 5608 5609 5611 5612 5614 5616 5618 5619 5620 5623 5626 5628 5631 5634 5637 5639 5640 5644 5646 5648 5650 5651 5654 5657 5660 5663 5664 5666 5666 5669 5671 5674 5677 5681 5687 5691 5695 5698 5701 5705 5710 5713 5715 5719 5722 5727 5731 5733 5735
5598 5600 5601 5602 5603 5604 5605 5607 5608 5611 5613 5614 5616 5618 5620 5623 5627 5631 5632 5633 5635 5639 5642 5644 5646 5648 5650 5652 5655 5658 5661 5663 5664 5666 5667 5670 5675 5677 5680 5682 5684 5689 5693 5697 5701 5704 5707 5709 5711 5713 5718 5723 5725 5727
5593 5595 5596 5598 5599 5600 5601 5603 5605 5607 5609 5611 5614 5617 5621 5624 5627 5630 5632 5633 5635 5637 5640 5642 5644 5646 5648 5651 5654 5656 5659 5660 5660 5662 5666 5669 5672 5675 5676 5679 5677 5678 5684 5689 5692 5695 5697 5699 5702 5704 5706 5709 5713 5716
5587 5590 5592 5594 5596 5597 5599 5601 5603 5605 5607 5609 5613 5617 5621 5624 5627 5629 5630 5631 5633 5636 5637 5638 5641 5643 5647 5649 5651 5653 5655 5656 5658 5660 5662 5665 5668 5671 5674 5675 5677 5679 5683 5684 5685 5687 5689 5691 5693 5694 5696 5698 5701 5705
5582 5585 5588 5590 5593 5595 5597 5599 5602 5603 5605 5608 5612 5616 5620 5623 5626 5629 5631 5632 5633 5635 5637 5638 5641 5644 5646 5648 5649 5651 5652 5654 5656 5657 5659 5660 5661 5663 5666 5668 5669 5670 5673 5675 5677 5678 5680 5682 5683 5684 5686 5688 5690 5694
5578 5581 5585 5588 5590 5593 5597 5599 5601 5603 5605 5608 5612 5616 5619 5622 5625 5628 5630 5632 5633 5634 5636 5638 5641 5643 5645 5647 5648 5650 5651 5652 5653 5655 5656 5656 5657 5658 5658 5659 5660 5661 5663 5665 5668 5669 5671 5673 5675 5678 5680 5680 5680 5682
5574 5578 5582 5585 5589 5592 5596 5599 5602 5604 5607 5609 5611 5614 5617 5620 5623 5625 5628 5630 5632 5634 5636 5638 5640 5642 5643 5645 5647 5648 5648 5649 5650 5651 5652 5652 5652 5652 5653 5652 5653 5655 5656 5657 5659 5660 5662 5663 5666 5668 5670 5670 5670 5671
5572 5576 5580 5584 5588 5592 5597 5598 5602 5605 5607 5609 5611 5614 5616 5618 5620 5622 5625 5628 5632 5634 5636 5638 5639 5641 5642 5644 5644 5645 5647 5648 5649 5650 5651 5651 5649 5649 5649 5648 5651 5651 5652 5654 5656 5656 5656 5658 5659 5662 5662 5663 5663 5661
5571 5576 5580 5584 5589 5593 5596 5599 5603 5605 5608 5610 5612 5615 5617 5619 5621 5623 5626 5629 5631 5633 5636 5638 5639 5641 5642 5644 5644 5645 5646 5646 5647 5649 5649 5648 5648 5649 5647 5647 5648 5649 5652 5653 5653 5652 5654 5654 5655 5656 5655 5655 5657 5659
5573 5578 5582 5586 5590 5594 5597 5601 5604 5607 5609 5612 5614 5615 5618 5620 5623 5625 5627 5629 5631 5634 5636 5637 5639 5639 5640 5641 5642 5644 5644 5644 5643 5645 5647 5647 5646 5647 5646 5646 5645 5646 5647 5649 5648 5648 5649 5649 5650 5649 5650 5651 5651 5651
5575 5580 5585 5587 5591 5595 5599 5602 5606 5609 5612 5615 5617 5618 5619 5622 5624 5627 5628 5630 5632 5634 5635 5637 5638 5640 5641 5642 5642 5642 5642 5642 5642 5642 5643 5644 5645 5642 5643 5644 5644 5644 5645 5646 5645 5646 5647 5648 5647 5646 5647 5648 5651 5653
5580 5584 5587 5591 5594 5598 5602 5606 5609 5612 5614 5616 5619 5620 5622 5622 5626 5629 5630 5631 5633 5635 5637 5638 5639 5640 5641 5641 5642 5642 5643 5641 5641 5642 5643 5643 5644 5643 5642 5641 5640 5641 5643 5643 5642 5642 5642 5642 5641 5639 5640 5642 5642 5642
5585 5588 5591 5595 5599 5602 5606 5609 5612 5614 5616 5619 5621 5623 5623 5626 5629 5629 5632 5634 5635 5637 5638 5638 5639 5640 5641 5642 5643 5642 5641 5644 5644 5644 5643 5641 5641 5641 5641 5641 5642 5642 5641 5639 5638 5637 5636 5635 5634 5633 5632 5632 5633 5633
5589 5593 5597 5601 5605 5608 5611 5613 5615 5617 5619 5621 5623 5626 5628 5629 5631 5632 5633 5635 5637 5637 5638 5638 5639 5640 5641 5642 5642 5642 5641 5641 5642 5642 5642 5640 5640 5640 5639 5638 5637 5636 5635 5635 5634 5633 5632 5631 5630 5628 5627 5626 5624 5623
5596 5599 5604 5607 5610 5612 5614 5616 5618 5621 5622 5624 5626 5628 5630 5631 5632 5632 5633 5634 5635 5636 5638 5638 5638 5638 5639 5639 5640 5640 5639 5638 5637 5635 5634 5634 5635 5635 5635 5635 5634 5631 5630 5629 5628 5628 5627 5626 5625 5623 5621 5620 5618 5617
5604 5606 5608 5610 5613 5616 5618 5620 5622 5623 5625 5626 5628 5629 5630 5631 5632 5633 5633 5634 5636 5637 5638 5637 5637 5637 5637 5638 5638 5638 5638 5637 5636 5634 5633 5632 5630 5628 5627 5626 5626 5626 5625 5626 5624 5621 5618 5616 5615 5614 5613 5611 5610 5609
5609 5611 5614 5616 5619 5621 5622 5624 5625 5627 5628 5629 5630 5630 5631 5632 5633 5633 5634 5634 5635 5636 5637 5637 5637 5638 5638 5637 5637 5636 5635 5634 5633 5632 5631 5629 5627 5625 5623 5621 5619 5616 5614 5614 5612 5611 5610 5609 5608 5605 5603 5599 5597 5596
5615 5616 5618 5620 5622 5624 5626 5627 5628 5629 5630 5630 5631 5632 5633 5634 5635 5636 5636 5636 5637 5637 5637 5638 5638 5638 5637 5636 5635 5634 5633 5631 5630 5628 5626 5624 5622 5620 5618 5616 5613 5611 5608 5606 5604 5602 5600 5597 5595 5592 5590 5587 5586 5585